JE7ZDC Weather Reports


time (UTC)temp
C
wind
direction
speed
KPH
gust
KPH
rain 1hr
cm
rain 24hr
cm
rain mn
cm
humidity
%
barometer
mb
20260510000030 18 119 0.0 4.8 0.00 0.00 0.00 45 1020.4
20260509234534 17 65 0.0 4.8 0.00 0.00 0.00 49 1020.4
20260509233026 17 255 0.0 4.8 0.00 0.00 0.00 52 1020.3
20260509231524 16 162 0.0 3.2 0.00 0.00 0.00 55 1020.4
20260509230022 16 222 0.0 3.2 0.00 0.00 0.00 55 1020.2
20260509224518 16 112 0.0 1.6 0.00 0.00 0.00 60 1020.3
20260509223019 15 207 0.0 3.2 0.00 0.00 0.00 57 1020.2
20260509221519 15 233 0.0 1.6 0.00 0.00 0.00 63 1020.1
20260509220012 14 120 0.0 0.0 0.00 0.00 0.00 67 1020.1
20260509214505 12 120 0.0 0.0 0.00 0.00 0.00 72 1020.1
20260509213002 11 117 0.0 0.0 0.00 0.00 0.00 78 1019.9
20260509211501 9 117 0.0 0.0 0.00 0.00 0.00 81 1019.7
20260509210115 8 117 0.0 0.0 0.00 0.00 0.00 83 1019.7
20260509204558 -17 0.0 0.0 0.00 0.03 0.00 1019.4
20260509203050 -17 0.0 0.0 0.00 0.03 0.00 1019.2
20260509201553 -17 0.0 0.0 0.00 0.03 0.00 1018.8
20260509200050 -17 0.0 0.0 0.00 0.03 0.00 1018.6
20260509194535 -17 0.0 0.0 0.00 0.03 0.00 1018.4
20260509193032 -17 0.0 0.0 0.00 0.03 0.00 1018.2
20260509191529 6 104 0.0 4.8 0.00 0.03 0.00 84 1018.0
20260509190026 6 128 0.0 0.0 0.00 0.03 0.00 86 1017.8
20260509184527 6 122 0.0 1.6 0.00 0.03 0.00 85 1017.5
20260509183020 7 122 0.0 1.6 0.00 0.03 0.00 83 1017.4
20260509181517 7 121 0.0 0.0 0.00 0.03 0.00 83 1017.3
20260509180014 7 122 0.0 1.6 0.00 0.03 0.00 82 1017.1
20260509174513 7 118 0.0 1.6 0.00 0.03 0.00 81 1017.1
20260509173010 7 92 0.0 1.6 0.00 0.03 0.00 81 1016.9
20260509171520 7 56 0.0 4.8 0.00 0.03 0.00 80 1016.8
20260509170020 8 115 0.0 1.6 0.00 0.03 0.00 79 1016.8
20260509164503 8 122 0.0 4.8 0.00 0.03 0.00 78 1016.5
20260509163100 8 114 0.0 1.6 0.00 0.03 0.00 78 1016.4
20260509163002 8 253 0.0 1.6 0.00 0.03 0.00 78 1016.4
20260509161601 8 94 0.0 0.0 0.00 0.03 0.00 77 1016.3
20260509160056 8 122 0.0 0.0 0.00 0.03 0.00 76 1016.2
20260509154558 9 110 0.0 1.6 0.00 0.03 0.00 74 1016.2
20260509153054 10 110 0.0 1.6 0.00 0.03 0.00 70 1015.9
20260509151546 10 110 0.0 1.6 0.00 0.03 0.00 67 1015.9
20260509150048 11 105 0.0 3.2 0.00 0.03 0.00 64 1015.7
20260509144540 11 100 0.0 1.6 0.00 0.03 0.03 63 1015.8
20260509143039 11 179 0.0 4.8 0.00 0.03 0.03 59 1015.6
20260509141537 12 267 0.0 6.4 0.00 0.03 0.03 59 1015.4
20260509140036 12 264 0.0 8.0 0.00 0.03 0.03 59 1015.3
20260509134545 12 282 0.0 9.7 0.00 0.03 0.03 59 1015.3
20260509133033 12 268 1.6 11.3 0.00 0.03 0.03 58 1015.1
20260509131546 12 201 1.6 9.7 0.00 0.03 0.03 58 1014.9
20260509130037 12 290 0.0 17.7 0.00 0.03 0.03 58 1014.9
20260509124530 12 226 0.0 14.5 0.00 0.05 0.03 58 1014.7
20260509123028 12 257 1.6 12.9 0.00 0.05 0.03 59 1014.5
20260509121529 12 210 1.6 9.7 0.00 0.05 0.03 59 1014.5
20260509120025 13 119 1.6 17.7 0.00 0.05 0.03 59 1014.2
20260509114527 13 247 1.6 12.9 0.00 0.10 0.03 59 1014.2
20260509113022 13 214 1.6 14.5 0.00 0.10 0.03 58 1014.1
20260509111521 13 248 3.2 12.9 0.00 0.10 0.03 58 1013.8
20260509110019 13 263 3.2 17.7 0.00 0.10 0.03 59 1013.5
20260509104518 13 232 0.0 11.3 0.00 0.13 0.03 60 1013.4
20260509103017 13 11 4.8 19.3 0.00 0.13 0.03 59 1013.2
20260509101528 13 262 1.6 20.9 0.00 0.13 0.03 59 1012.8
20260509100021 13 302 3.2 22.5 0.00 0.13 0.03 61 1012.7
20260509094516 13 275 11.3 27.4 0.00 0.15 0.03 59 1012.6
20260509093011 13 276 3.2 20.9 0.00 0.15 0.03 59 1012.3
20260509091517 13 281 4.8 22.5 0.00 0.15 0.03 55 1011.8
20260509090007 14 309 6.4 17.7 0.00 0.36 0.03 53 1011.9
20260509084512 15 272 1.6 11.3 0.00 0.36 0.03 51 1011.9
20260509083005 15 257 8.0 25.7 0.00 0.36 0.03 46 1011.7
20260509081501 15 285 6.4 17.7 0.00 0.36 0.03 44 1011.1
20260509080059 16 265 3.2 14.5 0.00 0.36 0.03 44 1010.9
20260509074606 16 236 9.7 20.9 0.00 0.36 0.03 42 1010.5
20260509073101 17 283 3.2 16.1 0.00 0.36 0.03 35 1010.4
20260509071604 17 290 3.2 14.5 0.00 0.36 0.03 42 1010.4
20260509070049 17 304 1.6 17.7 0.00 0.36 0.03 41 1010.5
20260509064557 17 262 6.4 17.7 0.00 0.64 0.03 37 1010.2
20260509063046 17 275 6.4 19.3 0.00 0.64 0.03 42 1010.1
20260509061543 17 238 4.8 27.4 0.00 0.64 0.03 44 1009.9
20260509060037 17 267 4.8 20.9 0.00 0.64 0.03 43 1009.8
20260509054536 17 243 9.7 22.5 0.00 0.64 0.03 39 1009.9
20260509053030 17 285 3.2 17.7 0.00 0.64 0.03 46 1009.7
20260509051534 17 264 1.6 17.7 0.00 0.64 0.03 54 1009.7
20260509050023 16 255 1.6 20.9 0.00 0.64 0.03 56 1009.8
20260509044520 16 248 8.0 17.7 0.00 0.64 0.03 52 1009.8
20260509043019 15 304 3.2 20.9 0.00 0.64 0.03 58 1010.0
20260509041517 15 293 8.0 16.1 0.00 0.64 0.03 55 1010.1
20260509040014 15 252 8.0 19.3 0.00 0.64 0.03 52 1009.8
20260509034533 17 257 3.2 22.5 0.00 0.64 0.03 52 1009.6
20260509033011 17 294 8.0 17.7 0.00 0.64 0.03 49 1009.4
20260509031509 17 221 3.2 27.4 0.00 0.64 0.03 50 1009.2
20260509030004 17 285 8.0 20.9 0.00 0.64 0.03 48 1009.3
20260509024559 17 237 0.0 20.9 0.00 0.64 0.03 52 1009.1
20260509023057 16 257 4.8 19.3 0.00 0.64 0.03 51 1009.1
20260509021555 16 246 4.8 20.9 0.00 0.64 0.03 49 1008.9
20260509020054 16 93 8.0 25.7 0.00 0.64 0.03 47 1009.0
20260509014553 16 282 4.8 24.1 0.00 0.64 0.03 49 1009.0
20260509013056 15 246 4.8 25.7 0.00 0.64 0.03 53 1008.8
20260509011550 15 347 8.0 22.5 0.00 0.64 0.03 56 1008.7
20260509010048 14 332 4.8 22.5 0.00 0.64 0.03 58 1008.5
20260509004558 13 305 4.8 35.4 0.00 0.64 0.03 59 1008.4
20260509003149 14 322 8.0 25.7 0.00 0.64 0.03 59 1008.4
20260509001551 14 225 6.4 27.4 0.00 0.64 0.03 58 1008.0